EW5678 Weather Reports


Display with metric or nautical units.
time (UTC)temp
F
wind
direction
speed
MPH
gust
MPH
rain 1hr
in
rain 24hr
in
rain mn
in
humidity
%
barometer
mb
20260904145446 75 328 10.0 14.0 0.00 0.49 0.49 85 1000.8
20260904144546 75 338 9.0 14.0 0.00 0.49 0.49 84 1000.9
20260904142747 75 1 11.0 17.0 0.00 0.49 0.49 84 1000.9
20260904141846 74 7 9.0 16.0 0.00 0.49 0.49 86 1000.9
20260904140946 74 341 10.0 14.0 0.00 0.49 0.49 87 1000.8
20260904134246 73 352 7.0 13.0 0.00 0.49 0.49 88 1000.7
20260904133346 73 348 10.0 16.0 0.00 0.49 0.49 87 1000.6
20260904132447 73 344 10.0 16.0 0.00 0.49 0.49 88 1000.6
20260904131547 72 348 12.0 16.0 0.00 0.49 0.49 89 1000.6
20260904130646 72 3 12.0 21.0 0.00 0.49 0.49 90 1000.6
20260904125747 72 353 14.0 21.0 0.00 0.49 0.49 88 1000.5
20260904123946 72 348 13.0 19.0 0.00 0.49 0.49 91 1000.5
20260904123046 71 340 16.0 19.0 0.00 0.49 0.49 91 1000.6
20260904122147 71 330 14.0 19.0 0.00 0.49 0.49 93 1000.5
20260904121246 71 331 14.0 21.0 0.00 0.49 0.49 93 1000.5
20260904120346 71 323 14.0 19.0 0.00 0.49 0.49 93 1000.4
20260904115446 71 325 18.0 22.0 0.00 0.49 0.49 93 1000.4
20260904114546 71 325 18.0 21.0 0.00 0.49 0.49 92 1000.4
20260904113647 71 325 16.0 21.0 0.00 0.49 0.49 92 1000.3
20260904112747 71 320 19.0 23.0 0.00 0.49 0.49 92 1000.4
20260904111846 71 323 21.0 25.0 0.00 0.49 0.49 91 1000.3
20260904110946 71 324 19.0 23.0 0.00 0.49 0.49 92 1000.2
20260904110046 71 331 17.0 20.0 0.00 0.49 0.49 94 1000.1
20260904105146 71 329 16.0 19.0 0.00 0.49 0.49 93 1000.1
20260904104246 71 330 15.0 17.0 0.00 0.49 0.49 93 1000.0
20260904103346 71 329 15.0 18.0 0.00 0.49 0.49 91 999.8
20260904101547 72 333 11.0 12.0 0.00 0.49 0.49 90 999.7
20260904100647 72 342 10.0 12.0 0.00 0.49 0.49 90 999.5
20260904095747 72 358 8.0 10.0 0.00 0.49 0.49 91 999.4
20260904094846 72 17 9.0 10.0 0.00 0.49 0.49 91 999.6
20260904093946 72 16 8.0 10.0 0.00 0.49 0.49 91 999.6
20260904093046 72 333 8.0 10.0 0.00 0.49 0.49 91 999.5
20260904092146 72 322 6.0 9.0 0.00 0.49 0.49 89 999.6
20260904091246 72 341 6.0 7.0 0.00 0.49 0.49 92 999.5
20260904085447 72 338 5.0 10.0 0.00 0.49 0.49 93 999.6
20260904084547 72 325 10.0 15.0 0.00 0.49 0.49 93 999.7
20260904083646 72 326 14.0 20.0 0.00 0.49 0.49 93 999.7
20260904082746 73 332 16.0 22.0 0.00 0.49 0.49 91 1000.0
20260904081847 74 326 12.0 19.0 0.00 0.49 0.49 88 999.9
20260904080947 74 300 10.0 12.0 0.00 0.49 0.49 86 999.6
20260904080046 72 303 8.0 11.0 0.00 0.49 0.49 94 999.4
20260904075146 71 343 7.0 8.0 0.00 0.49 0.49 97 999.3
20260904074246 70 31 7.0 10.0 0.01 0.49 0.49 97 999.4
20260904071547 70 37 15.0 20.0 0.27 0.50 0.49 97 999.6
20260904070646 71 30 18.0 22.0 0.48 0.50 0.49 97 999.8
20260904064846 71 304 12.0 15.0 0.49 0.50 0.49 98 1000.2
20260904063946 71 311 9.0 15.0 0.48 0.49 0.48 98 1000.1
20260904063046 71 264 12.0 24.0 0.48 0.49 0.48 98 999.8
20260904061246 73 300 22.0 53.0 0.12 0.13 0.14 95 1000.6
20260904060346 76 289 5.0 11.0 0.00 0.02 0.00 90 1000.3
20260904055446 76 277 2.0 6.0 0.00 0.03 0.00 91 1000.3
20260904054546 76 273 3.0 7.0 0.00 0.03 0.00 90 1000.6
20260904053646 77 265 6.0 13.0 0.00 0.04 0.00 89 1000.6
20260904052746 77 266 9.0 15.0 0.00 0.05 0.00 87 1000.7
20260904051846 78 258 9.0 15.0 0.00 0.05 0.00 86 1000.8
20260904050946 77 241 12.0 15.0 0.00 0.05 0.00 87 1000.7
20260904050046 77 245 11.0 16.0 0.00 0.05 0.00 88 1000.8
20260904044246 77 240 12.0 15.0 0.00 0.05 0.00 88 1001.1
20260904043346 77 249 10.0 15.0 0.00 0.05 0.00 88 1001.2
20260904042446 77 264 9.0 13.0 0.00 0.05 0.00 86 1001.1
20260904041546 77 257 9.0 15.0 0.00 0.05 0.00 87 1001.2
20260904035746 78 254 10.0 14.0 0.00 0.05 0.00 85 1001.3
20260904034846 78 247 10.0 14.0 0.00 0.05 0.00 85 1001.3
20260904033946 78 244 11.0 14.0 0.00 0.05 0.00 85 1001.3
20260904033046 77 240 11.0 16.0 0.00 0.05 0.00 86 1001.4
20260904032146 76 227 11.0 14.0 0.00 0.05 0.00 88 1001.4
20260904031246 76 231 12.0 15.0 0.00 0.05 0.00 88 1001.4
20260904030346 77 230 13.0 15.0 0.00 0.05 0.00 86 1001.3
20260904025447 77 242 12.0 17.0 0.00 0.05 0.00 84 1001.6
20260904024546 76 226 13.0 16.0 0.00 0.05 0.00 86 1001.8
20260904023646 77 232 12.0 15.0 0.00 0.05 0.00 87 1001.8
20260904022747 76 227 13.0 16.0 0.00 0.05 0.00 88 1002.0
20260904021846 76 226 13.0 15.0 0.00 0.05 0.00 90 1002.0
20260904020946 75 223 9.0 14.0 0.00 0.05 0.00 91 1002.0
20260904020047 75 219 9.0 11.0 0.00 0.05 0.00 92 1002.0
20260904015146 74 213 6.0 11.0 0.00 0.05 0.00 93 1002.2
20260904013347 75 214 5.0 10.0 0.00 0.05 0.00 92 1002.5
20260904012446 75 216 6.0 11.0 0.00 0.05 0.00 91 1002.3
20260904011546 75 216 8.0 12.0 0.00 0.05 0.00 91 1002.4
20260904010646 75 218 8.0 12.0 0.00 0.05 0.00 91 1002.4
20260904005746 75 213 7.0 12.0 0.00 0.05 0.00 90 1002.3
20260904003947 76 221 8.0 13.0 0.00 0.05 0.00 88 1002.0
20260904003046 76 220 10.0 13.0 0.00 0.05 0.00 88 1002.1
20260904002146 76 219 9.0 13.0 0.00 0.05 0.00 88 1002.1
20260904001246 76 220 9.0 13.0 0.00 0.05 0.00 86 1002.0
20260904000348 76 217 6.0 12.0 0.00 0.05 0.00 87 1001.8
20260903235446 76 215 6.0 10.0 0.00 0.05 0.05 88 1001.6
20260903234547 76 205 5.0 10.0 0.00 0.05 0.05 88 1001.5
20260903233646 76 188 5.0 8.0 0.00 0.05 0.05 88 1001.5
20260903232746 76 184 5.0 9.0 0.00 0.05 0.05 87 1001.5
20260903231846 77 176 5.0 9.0 0.00 0.05 0.05 86 1001.6
20260903230946 77 207 4.0 7.0 0.00 0.05 0.05 85 1001.8
20260903230046 78 222 5.0 9.0 0.00 0.05 0.05 85 1001.8
20260903223346 80 186 3.0 6.0 0.00 0.05 0.05 81 1002.0
20260903221546 80 174 4.0 7.0 0.00 0.05 0.05 80 1002.0
20260903220646 81 186 3.0 7.0 0.00 0.05 0.05 79 1002.0
20260903215746 81 222 2.0 4.0 0.00 0.05 0.05 76 1001.9
20260903214846 80 269 2.0 4.0 0.00 0.05 0.05 76 1002.0
20260903213946 80 278 2.0 4.0 0.00 0.05 0.05 76 1002.0
20260903213046 80 295 4.0 6.0 0.00 0.05 0.05 77 1002.0
20260903210346 81 276 3.0 6.0 0.00 0.05 0.05 76 1001.8
20260903205446 80 279 4.0 7.0 0.00 0.05 0.05 77 1002.0
20260903204546 80 281 6.0 10.0 0.00 0.06 0.05 76 1002.0
20260903203646 80 272 5.0 10.0 0.00 0.09 0.05 75 1002.0
20260903202746 80 281 4.0 10.0 0.00 0.10 0.05 75 1002.0
20260903201846 80 282 5.0 9.0 0.00 0.11 0.05 76 1002.0
20260903200946 79 282 7.0 10.0 0.00 0.20 0.05 79 1002.0
20260903200046 79 283 5.0 9.0 0.00 0.28 0.05 79 1002.2
20260903194246 79 286 8.0 12.0 0.00 0.42 0.05 77 1002.3
20260903193346 79 285 8.0 13.0 0.00 0.47 0.05 78 1002.3
20260903192446 79 293 8.0 13.0 0.00 0.47 0.05 78 1002.4
20260903190646 78 293 11.0 17.0 0.00 0.47 0.05 78 1002.6
20260903185746 78 284 14.0 20.0 0.00 0.47 0.05 79 1002.6
20260903184846 78 287 14.0 19.0 0.00 0.47 0.05 79 1002.6
20260903183946 78 287 11.0 21.0 0.00 0.47 0.05 79 1002.6
20260903183046 78 289 12.0 18.0 0.00 0.47 0.05 80 1002.6
20260903182146 78 289 15.0 22.0 0.00 0.47 0.05 80 1002.6
20260903181247 77 288 15.0 24.0 0.00 0.47 0.05 80 1002.8
20260903180346 77 286 17.0 23.0 0.00 0.47 0.05 80 1002.8
20260903175446 77 292 16.0 24.0 0.00 0.47 0.05 80 1003.0
20260903174546 76 291 18.0 26.0 0.00 0.47 0.05 80 1003.0
20260903173646 76 288 15.0 24.0 0.00 0.47 0.05 81 1002.9
20260903171846 76 294 12.0 19.0 0.00 0.47 0.05 83 1003.1
20260903170946 76 289 13.0 20.0 0.00 0.47 0.05 84 1003.1
20260903170046 75 296 15.0 21.0 0.00 0.47 0.05 85 1003.2
20260903165147 75 295 13.0 18.0 0.00 0.47 0.05 85 1003.2
20260903164246 75 295 13.0 17.0 0.00 0.47 0.05 85 1003.1
20260903163346 75 295 14.0 18.0 0.00 0.47 0.05 86 1003.2
20260903162446 74 292 14.0 19.0 0.00 0.47 0.05 88 1003.4
20260903160646 76 286 8.0 18.0 0.00 0.47 0.05 86 1003.6
20260903155746 75 283 9.0 17.0 0.00 0.47 0.05 87 1003.7
20260903154846 74 285 10.0 16.0 0.00 0.47 0.05 87 1003.7
20260903153048 74 275 10.0 18.0 0.00 0.47 0.05 88 1003.6
20260903152147 74 270 8.0 17.0 0.00 0.47 0.05 87 1003.7
20260903151246 74 259 6.0 13.0 0.00 0.47 0.05 89 1004.1